Location: Hope
(40.9110°N, 74.9680°W)
Time: 05:24:53
(UTC-04:00)

Envisat - Visible Passes

Search period start: 27 May 2018 00:00
Search period end: 06 June 2018 00:00
Orbit: 764 x 766 km, 98.2° (Epoch: 26 May)

Date Brightness Start Highest point End Pass type
(mag) Time Alt. Az. Time Alt. Az. Time Alt. Az.
27 May 5.0 21:11:22 10° SSW 21:15:39 27° W 21:19:59 10° NW visible
29 May 5.6 21:38:28 10° SW 21:41:28 16° W 21:44:29 10° NW visible
30 May 4.6 20:59:50 10° SSW 21:04:26 35° W 21:09:04 10° NNW visible
01 Jun 5.4 21:26:32 10° SW 21:30:12 20° W 21:33:53 10° NW visible
02 Jun 4.2 20:48:24 10° S 20:53:14 44° W 20:58:05 10° NNW visible
03 Jun 5.9 21:54:51 10° WSW 21:56:04 11° W 21:57:17 10° WNW visible
04 Jun 5.1 21:14:48 10° SSW 21:18:57 25° W 21:23:07 10° NW visible
